Location: Mentone
(34.5413°N, 85.5351°W)
Time: 22:28:29
(UTC-05:00)

Tiros 1 despin weight - Visible Passes

Search period start: 16 September 2014 00:00
Search period end: 26 September 2014 00:00
Orbit: 601 x 652 km, 48.2° (Epoch: 15 September)

Date Brightness Start Highest point End Pass type
(mag) Time Alt. Az. Time Alt. Az. Time Alt. Az.
16 Sep ? 04:02:19 23° N 04:03:26 26° NNE 04:07:22 10° E visible
16 Sep ? 05:40:54 10° NW 05:45:34 76° SW 05:50:16 10° SE visible
17 Sep ? 04:21:36 32° NNW 04:23:07 42° NNE 04:27:34 10° ESE visible
17 Sep ? 06:00:35 10° WNW 06:04:49 35° SW 06:09:06 10° SSE visible
18 Sep ? 03:03:46 11° ENE 03:03:46 11° ENE 03:03:57 10° ENE visible
18 Sep ? 04:41:05 42° NW 04:42:37 80° NE 04:47:19 10° SE visible
18 Sep ? 20:26:18 10° S 20:26:40 12° S 20:26:40 12° S visible
19 Sep ? 03:23:28 14° E 03:23:28 14° E 03:24:17 10° E visible
19 Sep ? 05:00:47 39° W 05:01:56 48° SW 05:06:26 10° SSE visible
19 Sep ? 20:44:47 10° SW 20:46:34 23° SSW 20:46:34 23° SSW visible
20 Sep ? 03:43:20 15° ESE 03:43:20 15° ESE 03:44:14 10° ESE visible
20 Sep ? 05:20:40 22° WSW 05:21:05 22° SW 05:24:41 10° S visible
20 Sep ? 19:24:07 10° S 19:27:08 18° SE 19:28:59 14° E visible
20 Sep ? 21:04:04 10° WSW 21:06:17 29° WSW 21:06:17 29° WSW visible
21 Sep ? 04:03:20 12° SE 04:03:20 12° SE 04:03:38 10° SE visible
21 Sep ? 19:42:05 10° SSW 19:46:14 41° SE 19:48:29 23° E visible
21 Sep ? 21:23:54 10° W 21:25:47 22° W 21:25:47 22° W visible
22 Sep ? 20:01:04 10° SW 20:05:30 89° NW 20:07:46 29° NE visible
22 Sep ? 21:44:11 10° WNW 21:45:03 14° WNW 21:45:03 14° WNW visible
23 Sep ? 20:20:41 10° WSW 20:24:56 45° NNW 20:26:51 28° NNE visible
24 Sep ? 18:58:09 10° SW 19:02:32 66° SE 19:06:57 10° ENE visible
24 Sep ? 20:40:47 10° W 20:44:33 26° NNW 20:45:44 23° N visible
25 Sep ? 19:17:31 10° WSW 19:21:53 59° NW 19:26:18 10° NE visible
25 Sep ? 21:01:13 10° WNW 21:04:20 18° NNW 21:04:29 18° NNW visible
